CST,Max TemperatureF,Mean TemperatureF,Min TemperatureF,Max Dew PointF,MeanDew PointF,Min DewpointF,Max Humidity, Mean Humidity, Min Humidity, Max Sea Level PressureIn, Mean Sea Level PressureIn, Min Sea Level PressureIn, Max VisibilityMiles, Mean VisibilityMiles, Min VisibilityMiles, Max Wind SpeedMPH, Mean Wind SpeedMPH, Max Gust SpeedMPH,PrecipitationIn, CloudCover, Events, WindDirDegrees
2013-2-1,36,22,7,20,12,3,80,64,47,30.48,30.31,30.16,10,10,10,23,9,28,0.02,2,,186
2013-2-2,54,39,23,34,28,21,85,65,45,30.28,30.23,30.15,10,10,10,17,10,22,0.00,1,,266
2013-2-3,55,40,25,30,25,21,81,56,30,30.30,30.11,29.81,10,10,10,24,9,32,0.00,0,,192
2013-2-4,49,38,27,31,28,24,85,67,49,30.01,29.94,29.80,10,10,9,16,7,18,0.00,0,,346
2013-2-5,63,44,25,30,27,22,85,55,25,30.07,30.01,29.92,10,10,8,12,6,14,0.00,0,,359
2013-2-6,62,46,30,50,40,26,93,72,51,30.05,29.91,29.80,10,9,1,26,11,35,0.00,4,,168
2013-2-7,55,44,32,52,42,26,100,72,43,30.26,29.95,29.82,10,5,1,24,12,30,1.14,5,Rain-Thunderstorm,350
2013-2-8,41,35,28,32,28,25,92,81,70,30.37,30.27,30.13,10,4,0,20,8,24,0.00,4,Fog,104
2013-2-9,52,44,35,40,35,30,89,76,63,30.13,29.85,29.59,10,8,2,31,18,38,0.02,4,Rain-Thunderstorm,158
2013-2-10,47,41,34,43,30,22,92,69,45,30.03,29.64,29.41,10,10,9,39,23,46,T,3,,249
2013-2-11,45,36,26,22,19,17,69,51,33,30.26,30.18,30.07,10,10,10,21,8,24,0.00,0,,306
2013-2-12,44,35,26,27,24,21,81,61,41,30.19,30.09,30.00,10,10,10,10,4,13,0.00,2,,201
2013-2-13,58,41,23,25,21,17,78,51,23,30.01,29.93,29.85,10,10,10,23,9,32,0.00,0,,264
2013-2-14,49,39,28,31,25,18,85,60,34,30.34,30.12,29.92,10,10,9,31,13,37,0.00,2,Snow,317
2013-2-15,43,31,18,20,16,12,84,59,33,30.47,30.41,30.33,10,10,9,28,10,35,T,3,Snow,330
2013-2-16,55,35,14,27,18,10,80,55,29,30.42,30.19,30.02,10,10,10,23,8,28,0.00,3,,200
2013-2-17,69,47,25,33,27,22,85,53,20,30.01,29.80,29.51,10,10,8,20,10,26,0.00,0,,173
2013-2-18,53,39,25,30,24,16,65,50,34,30.17,29.80,29.43,10,10,10,40,19,49,0.00,2,,322
2013-2-19,41,31,20,17,12,2,77,52,27,30.39,30.30,30.17,10,10,10,17,9,21,0.00,0,,1
2013-2-20,29,25,21,23,16,3,88,61,33,30.31,30.18,30.08,10,5,0,20,12,25,0.00,7,Fog-Snow,93
2013-2-21,24,19,13,20,18,10,92,83,74,30.09,29.88,29.75,10,2,0,17,12,22,T,8,Fog-Snow,32
2013-2-22,25,16,6,14,9,4,88,75,62,30.16,30.07,29.89,10,10,7,20,10,23,0.00,1,,278
2013-2-23,35,17,-2,25,12,-2,95,80,64,30.13,30.01,29.94,8,7,4,14,6,17,0.00,0,,170
2013-2-24,41,27,13,30,21,10,88,74,59,29.98,29.94,29.88,10,8,2,17,7,22,T,4,Rain,67
2013-2-25,36,34,32,31,29,26,89,82,75,29.99,29.92,29.81,7,3,1,26,17,35,0.23,8,Rain-Snow,10
2013-2-26,35,31,27,28,26,23,92,81,69,29.98,29.88,29.79,6,4,2,25,15,29,0.02,7,Snow,334
2013-2-27,40,34,27,27,25,21,85,70,54,30.20,30.07,29.94,10,7,2,25,15,30,T,4,Snow,316
2013-2-28,37,33,28,27,25,23,78,71,64,30.28,30.24,30.17,10,9,7,20,12,22,T,7,Snow,328